Погода в Верхотулье

Россия / Кировская область     57°46′15″N   48°03′44″E
темп.,
°C
ветер,
м/с
пор.,
м/с
влажн.,
%
обл.,
%
осадки,
мм/ч
давл.,
гПа
погр.,
м
2 июля, сб
сб200:00+10ссв257699 0.0 101981
03:00+8с22806 0.0 101936
06:00+13ссз24661 0.0 1018179
09:00+20ссз24475 0.0 1017898
12:00+21ссз344799 0.0 10161045
15:00+22сз244223 0.0 10151482
18:00+18всв3571100 0.2 1014214
21:00+14вюв1199100 3.9 101444
3 июля, вс
вс300:00+14с249978 4.3 1014159
03:00+13ссв379969 4.3 1014305
06:00+13ссв379585 0.0 1014371
09:00+17ссв467790 0.0 1014777
12:00+18ссв456795 0.1 10151108
15:00+18ссв4563100 0.1 10151251
18:00+19с146496 0.0 1014981
21:00+15зсз227897 0.0 101422
4 июля, пн
пн400:00+15ссз1277100 0.0 101420
03:00+12с2687100 0.0 1014102
06:00+14ссв357499 0.0 1015206
09:00+20св35517 0.0 1015935
12:00+22св353842 0.0 10152079
15:00+23ссв3437100 0.0 10142193
18:00+21с245899 0.0 1015158
21:00+15ссв227199 0.0 101524
5 июля, вт
вт500:00+13с2276100 0.0 101615
03:00+11с117967 0.0 101611
06:00+15с126511 0.0 1017139
09:00+22св12471 0.0 1017718
12:00+25всв12355 0.0 10161748
15:00+25юв123491 0.0 10161999
18:00+22ю355946 0.0 1016286
21:00+16ююз23763 0.0 101644
6 июля, ср
ср600:00+14ююз23801 0.0 101751
03:00+12ююз22840 0.0 101732
06:00+17ю24700 0.0 1017170
09:00+22ююз34552 0.0 1016618
12:00+26ююз33450 0.0 10161443
15:00+27ююз34427 0.0 10151776
18:00+25ююв255999 0.0 1014212
21:00+18ююз248876 0.0 101571